Theta_e
341 342 344 344 347 349 347 345 344 345 346 345 347 347 348 351 350 348 349 349 348 350 354 354 354 354 354 354 354 352 348 352 352 348 348 350 347 346 348 346 348 349 350
343 341 344 345 347 351 344 344 342 344 345 347 347 348 348 348 346 352 350 353 354 354 354 354 354 353 354 353 353 353 353 348 345 346 344 347 351 345 346 345 344 344 346
347 348 347 347 348 347 345 347 343 343 344 346 351 352 353 352 352 354 354 353 349 353 353 353 353 353 352 348 341 347 348 347 347 348 348 347 350 351 349 345 350 347 345
348 347 347 344 348 346 346 345 344 343 344 348 352 351 349 353 353 353 349 345 347 353 354 353 352 351 354 342 334 340 344 346 349 349 350 346 344 348 348 350 349 348 343
348 347 347 345 345 344 348 348 348 344 344 352 353 351 349 354 353 353 351 346 348 353 354 354 352 350 345 332 333 341 341 343 345 348 345 346 347 351 349 348 348 348 347
349 348 347 348 348 349 350 343 340 344 351 351 353 353 354 353 353 352 347 349 350 352 355 354 352 350 346 331 338 340 341 342 344 342 343 339 338 344 347 346 344 343 345
349 348 348 346 346 346 344 340 340 341 349 351 352 354 353 352 351 348 348 348 348 349 351 352 353 346 333 330 338 337 338 342 344 344 346 348 346 347 347 343 339 340 346
350 348 347 343 341 340 341 342 341 347 352 351 354 348 347 347 343 343 346 346 347 346 345 348 346 343 329 332 333 335 336 337 338 339 343 344 347 345 344 347 348 347 346
348 348 348 347 346 340 341 340 339 345 348 347 346 347 347 340 336 338 343 345 344 345 344 344 346 341 333 334 334 335 335 332 329 329 330 321 323 323 325 333 336 339 341
347 349 348 348 348 347 345 338 338 346 343 342 345 346 337 347 337 333 342 344 343 344 345 345 347 346 340 337 337 337 338 334 332 328 322 317 314 314 314 314 317 323 326
348 349 349 346 348 348 349 344 341 343 343 345 348 347 350 352 352 354 346 343 344 347 348 348 348 348 348 344 340 339 339 335 334 331 326 325 324 322 321 319 318 316 314
343 347 350 353 350 350 348 348 345 348 350 351 353 352 352 351 347 346 342 343 348 348 348 350 349 349 349 353 347 346 340 337 337 335 332 330 330 329 328 327 327 326 324
343 345 350 350 351 349 347 351 352 351 354 354 355 351 350 347 343 338 340 349 349 349 352 351 350 351 350 352 349 346 343 342 342 342 342 340 338 337 335 333 331 331 330
344 346 350 350 351 350 349 350 348 352 356 351 354 352 352 350 351 348 346 346 349 349 350 350 350 351 347 347 348 346 344 345 345 344 344 344 344 343 342 341 340 339 337
345 348 349 348 349 349 349 350 350 351 352 353 348 352 351 349 349 348 344 347 346 349 350 350 351 351 351 348 349 348 347 346 347 348 345 345 345 345 345 344 344 343 343
345 348 349 350 348 348 350 348 349 349 350 349 351 347 351 349 347 348 346 345 346 352 350 350 351 350 350 349 348 349 349 348 348 350 349 348 347 346 346 345 345 345 344
345 348 348 347 348 348 350 349 350 349 350 348 351 347 351 351 350 349 348 344 348 344 351 352 350 350 350 347 349 349 348 348 349 350 350 351 349 348 348 347 347 346 345
345 347 348 346 347 349 351 347 349 349 348 347 351 350 352 353 348 351 345 346 348 348 348 348 348 350 348 350 347 348 349 349 349 350 349 348 352 351 349 349 349 348 344
346 347 347 348 347 349 349 348 351 349 349 346 346 350 351 352 351 352 350 351 346 351 347 348 355 348 350 350 349 349 347 348 349 351 347 349 349 347 350 351 351 351 351
347 348 349 347 348 348 348 351 349 350 347 348 345 350 349 351 351 350 355 352 341 349 349 354 351 349 350 353 349 350 347 348 348 346 346 346 349 347 351 351 352 352 354
345 348 349 347 351 348 352 350 351 350 347 347 346 352 351 350 351 350 354 347 343 349 352 354 351 357 351 350 347 352 350 348 346 346 344 344 347 347 345 347 348 353 348
344 349 349 350 351 351 351 349 348 347 348 347 347 349 352 350 351 351 350 353 347 348 346 352 354 354 357 352 351 351 359 353 348 347 346 344 348 345 346 346 346 344 346
345 347 351 352 352 350 350 349 349 348 348 351 349 348 349 351 351 350 349 350 354 347 351 352 353 353 353 355 351 354 363 364 354 349 346 345 346 346 344 343 341 341 340
346 346 351 353 355 351 351 351 353 352 352 351 352 351 351 351 352 351 351 348 350 354 346 351 355 355 356 352 353 350 352 353 361 359 348 349 348 348 349 345 342 339 341
347 349 351 354 356 356 350 354 355 353 353 352 348 349 352 351 352 351 351 356 350 349 349 351 355 357 357 356 354 353 355 356 353 359 360 353 350 347 345 344 344 341 338
348 349 352 355 355 357 357 351 356 353 354 353 353 354 351 355 352 352 352 351 353 354 349 349 355 354 355 351 351 354 351 351 352 357 358 354 352 348 344 342 341 341 340
Wind_Speed
9 11 13 13 12 11 10 12 11 14 16 17 19 20 21 22 23 23 23 21 20 20 21 20 19 18 18 17 17 16 17 17 16 17 18 17 16 16 12 12 17 15 15
19 14 14 13 12 10 10 11 12 14 14 18 19 20 22 22 23 22 22 21 20 20 20 18 17 18 17 15 15 14 14 15 16 15 18 18 16 16 18 16 14 15 13
22 16 14 14 12 11 10 11 15 13 15 17 17 19 19 20 20 21 21 19 18 19 18 16 15 15 16 15 14 14 15 13 11 12 11 16 15 14 14 14 15 13 13
23 18 14 14 13 12 13 14 16 14 15 16 15 17 18 20 19 20 20 20 18 18 17 17 16 13 12 12 14 15 14 13 12 12 14 17 15 13 12 13 13 11 11
24 19 16 14 13 14 18 20 17 15 16 15 15 17 18 18 19 19 19 17 17 17 16 15 15 14 13 13 15 17 15 15 12 14 16 16 14 13 11 11 13 11 10
23 20 17 16 19 24 22 22 20 17 15 15 15 16 17 17 16 16 17 16 17 17 15 14 13 13 12 13 16 15 14 16 19 18 16 12 13 11 11 11 10 9 10
23 20 18 21 24 23 23 26 20 16 15 15 14 15 16 14 13 15 15 16 17 16 16 14 12 14 14 16 17 16 15 16 18 16 16 13 13 12 11 11 10 9 9
26 20 19 22 23 25 23 21 21 17 14 14 12 14 13 13 13 14 14 14 14 14 15 13 14 15 18 20 18 15 14 15 17 16 13 13 12 12 12 12 12 11 9
26 20 20 20 20 22 19 19 22 15 12 12 12 12 11 12 12 13 13 13 12 12 12 12 13 18 22 21 17 17 19 23 19 18 13 11 10 9 9 9 8 8 8
26 26 24 21 20 19 17 20 19 10 11 10 11 11 15 19 15 14 11 12 11 11 10 10 11 14 18 17 15 15 15 20 15 13 14 14 13 13 13 11 10 9 8
29 26 23 21 22 21 18 18 15 11 11 11 11 11 12 10 10 10 10 11 10 8 8 6 5 7 9 13 13 16 18 20 15 11 14 14 14 14 14 13 12 11 10
20 24 29 23 22 19 17 17 13 13 11 6 6 4 9 12 13 9 10 8 6 4 5 7 2 1 6 4 10 6 15 17 13 13 14 13 13 13 13 12 11 11 10
19 23 34 23 23 21 17 18 16 14 16 9 8 5 9 13 10 11 8 0 4 7 6 3 16 7 7 7 10 6 13 18 15 13 12 11 11 11 10 10 9 8 8
18 29 28 26 22 17 15 20 17 15 19 13 9 5 10 5 7 13 7 3 1 6 9 14 9 8 13 11 6 9 12 10 10 12 12 10 9 8 7 7 6 5 4
18 27 27 23 21 17 15 10 7 13 18 18 11 7 5 4 3 4 7 1 5 5 9 9 3 4 5 9 8 10 9 8 8 6 8 8 8 6 5 4 3 2 2
18 24 23 24 22 15 9 12 9 10 13 10 15 11 2 7 8 6 7 5 0 8 7 4 1 2 6 12 10 4 5 9 6 3 2 3 2 3 3 2 1 1 1
18 21 22 20 16 16 9 12 11 9 10 8 14 13 6 6 8 8 5 8 6 4 2 4 8 6 3 7 6 5 7 5 8 2 4 5 4 4 3 0 2 3 4
20 20 21 19 20 15 13 16 11 11 13 13 11 10 9 6 13 8 8 5 4 6 2 2 5 8 1 8 2 1 3 3 1 5 2 2 2 4 7 4 3 7 6
19 20 21 19 24 21 17 16 13 11 7 12 14 15 15 10 11 11 10 9 5 6 2 4 11 1 4 6 9 7 4 4 3 9 2 5 6 2 4 3 4 8 8
19 21 18 17 24 23 21 15 13 12 12 10 13 20 18 14 12 13 4 7 8 8 4 2 5 1 5 9 11 8 4 5 7 6 4 8 11 1 4 2 8 10 11
21 23 20 22 20 25 20 17 16 15 16 14 15 16 19 16 15 15 8 10 8 8 4 3 1 11 11 1 9 19 6 9 10 11 6 1 3 0 8 7 8 6 12
24 25 24 22 20 23 21 22 18 21 22 20 17 18 14 15 15 16 15 10 10 11 8 5 5 9 10 2 3 11 3 2 2 6 4 2 1 3 8 7 7 14 9
25 25 26 24 25 24 22 21 20 18 17 9 19 22 19 15 16 17 17 14 5 10 9 11 8 7 8 3 2 1 3 3 11 8 4 7 5 5 8 8 15 10 15
26 27 26 25 25 27 27 23 21 17 15 15 14 21 23 22 20 18 18 19 10 6 12 15 12 7 2 9 6 7 4 2 1 4 13 7 7 11 11 12 9 12 14
24 29 28 30 25 24 28 24 23 21 21 21 23 19 23 24 23 21 21 17 17 14 12 12 6 10 4 6 11 14 7 5 9 7 4 12 15 18 18 20 10 11 12
25 26 30 33 31 27 26 30 22 26 24 20 25 22 24 24 27 24 23 24 18 17 18 16 10 8 8 10 11 12 12 8 12 6 3 9 13 20 21 21 18 10 7
Wind_Direction
126 100 96 124 134 121 120 103 104 92 85 89 84 85 88 89 89 91 92 92 91 92 90 85 86 87 89 89 87 85 90 87 86 91 95 85 81 81 93 94 80 87 88
135 116 102 116 136 131 133 107 108 97 88 90 86 87 89 89 92 94 91 91 87 86 85 86 91 89 87 88 92 95 97 94 100 99 93 84 78 81 86 93 93 93 94
130 125 122 128 132 136 141 119 117 104 96 90 87 89 93 97 96 91 89 88 84 83 84 84 84 85 85 86 99 105 104 97 100 110 98 92 82 83 87 92 92 94 97
130 124 120 121 127 131 141 127 122 110 104 94 89 93 94 95 90 88 89 89 89 85 81 82 80 81 77 82 102 113 104 98 95 97 96 94 88 82 88 93 94 98 98
122 123 119 113 120 131 136 129 121 112 107 98 97 97 95 94 89 87 88 90 85 83 82 78 76 74 76 92 107 109 99 100 99 98 83 99 89 76 97 88 83 92 115
120 118 113 108 115 124 127 136 121 112 105 103 101 101 97 96 94 95 92 88 85 79 80 86 79 78 80 97 115 103 88 72 83 98 77 84 95 89 90 93 93 98 101
120 120 116 111 117 120 122 130 127 117 112 108 108 101 100 102 99 96 93 89 85 81 84 88 91 80 82 104 108 99 90 93 97 89 89 89 89 87 88 89 91 94 99
120 122 122 122 120 122 125 132 134 117 114 110 107 105 107 103 101 100 100 94 86 83 82 88 85 82 84 101 104 101 97 90 97 99 99 104 108 108 104 98 95 89 85
123 126 132 134 132 127 123 139 141 106 118 111 114 110 109 104 107 109 109 97 88 82 81 88 87 91 93 97 101 99 93 83 90 93 92 98 100 99 100 104 105 103 104
136 137 139 142 141 133 130 135 145 119 117 122 120 119 113 94 99 104 108 99 88 83 95 97 94 99 107 101 99 99 103 100 87 90 95 95 97 95 95 96 97 99 98
128 139 139 145 143 135 136 140 152 142 127 122 120 115 122 103 103 108 130 104 99 98 83 89 107 115 119 115 102 93 84 104 95 93 96 96 95 93 91 88 88 89 90
149 152 146 147 150 149 146 147 150 150 135 137 135 150 118 96 131 136 122 118 82 38 29 19 4 311 200 156 91 84 112 113 99 93 93 93 91 89 87 87 86 83 83
157 157 145 142 156 161 153 159 169 162 166 146 134 126 132 133 142 140 144 4 325 4 7 24 37 106 50 187 113 88 106 121 111 97 89 89 88 86 84 83 82 80 80
159 146 143 147 157 151 168 170 173 168 165 138 143 123 143 154 207 205 177 187 28 58 31 65 58 42 77 75 77 118 109 100 133 98 89 84 80 81 81 78 74 74 73
151 140 141 142 151 163 166 177 143 149 151 147 144 149 171 177 150 101 129 264 106 346 58 64 61 43 108 102 58 72 91 100 120 142 103 86 75 78 78 79 76 69 41
160 136 138 134 143 156 124 173 147 148 131 146 159 168 166 154 162 132 159 125 47 52 68 58 53 345 13 120 112 84 95 127 105 110 190 150 111 108 93 67 35 302 292
168 151 145 151 155 171 154 175 175 177 170 154 143 165 171 143 174 183 192 163 164 90 196 253 305 277 282 136 155 122 146 97 101 102 259 214 224 226 244 62 336 312 288
172 157 157 169 166 168 174 177 193 196 176 172 163 163 177 179 185 183 168 187 150 222 243 271 320 30 84 352 174 128 115 180 196 195 175 6 260 274 272 248 320 330 299
173 163 162 173 164 167 178 186 206 188 206 175 183 174 178 185 204 212 224 159 201 277 287 300 41 18 358 306 300 220 161 214 293 165 309 243 215 289 272 232 312 306 280
168 164 170 185 170 169 179 190 200 174 204 209 198 181 169 180 203 217 213 131 199 260 210 61 33 40 295 325 317 307 192 238 177 222 221 261 168 248 243 308 290 292 284
175 166 183 180 169 170 175 197 201 188 195 223 199 180 166 183 197 225 222 192 209 280 99 86 255 291 290 332 319 321 242 193 219 218 163 141 148 141 281 250 277 264 308
174 170 178 184 181 177 187 192 209 203 199 207 205 178 169 185 203 221 222 212 203 238 212 187 272 289 309 117 347 321 307 268 328 90 67 346 73 312 299 318 319 305 284
173 175 178 186 185 186 199 197 211 199 229 253 200 184 190 195 207 211 231 225 284 219 215 194 219 265 315 325 113 281 343 22 331 335 226 219 267 265 271 287 312 303 295
176 177 184 188 188 193 200 201 203 193 218 219 217 190 195 197 207 217 219 231 227 240 240 202 225 223 280 301 291 249 248 168 336 324 327 320 271 263 288 272 290 304 308
191 180 184 185 195 199 207 213 203 202 207 213 218 231 188 195 200 213 220 220 226 233 232 251 222 196 242 246 303 324 213 202 266 237 282 307 318 326 319 306 279 309 302
195 190 183 182 191 202 203 215 215 205 223 212 209 211 188 193 198 207 215 218 219 223 234 250 243 229 242 261 276 297 315 300 297 261 279 317 320 315 311 318 312 285 282